Terug naar catalogus

GXIBA-1

ActiefWetenschapVLEO
NORAD 67685·PAYLOAD·🇲🇽 Mexico

Gelanceerd Nov 20, 1998 vanaf Baikonur Cosmodrome

Loading…

Volgende Passages (komende 24 uur)

TLE

VersSource: Space-Track

Epoch: Sep 13, 2026, 21:21 UTC

1 67685U 98067YB  26256.88961024  .00087195  00000-0  63503-3 0  9991
2 67685  51.6218 203.0684 0008660 155.4995 204.6416 15.72523767 34193

Volg GXIBA-1 in realtime met AllMySat

Download on the App Store